Location: Saint-Maurice-d�Ard�che
(44.5216°N, 4.4002°E)
Time: 15:45:52
(UTC+00:00)

MOS 1 Rocket - Pass Details

Date: 30 March 2020
Orbit: 614 x 830 km, 97.4° (Epoch: 27 May)

Event Time Altitude Azimuth Distance (km) Brightness Sun altitude
Rises 19:17:04 0° 21° (NNE) 3,270 6.8 -12.8°
Reaches altitude 10° 19:19:35 10° 31° (NNE) 2,366 5.9 -13.3°
Maximum altitude 19:24:20 33° 95° (E) 1,329 4.2 -14.1°
Drops below altitude 10° 19:29:11 10° 159° (SSE) 2,422 5.7 -14.9°
Enters shadow 19:29:44 - 162° (SSE) 2,614 5.9 -15.0°
